sat.trackr.live / text

‹ back to catalog

STARLINK-31974

NORAD 59885 · 2024-100A

PAYLOAD ACTIVE UNKNOWN

§ Identity

Operator
Country
US
Launch date
2024-05-28
Launch site
AFETR
Launch vehicle
Mass (kg)
RCS (m²)

Purposes: comms

External: N2YO · Heavens-Above · Gunter

§ Orbital elements

Epoch: 2026-09-20T23:27:49.937184Z

Period
94.27 min
Inclination
43.0026°
Eccentricity
0.0001123
Mean motion
15.27579955 rev/d
Perigee alt
482.3 km
Apogee alt
483.8 km
Semi-major
6,861.2 km
B*
3.2021e-5
RAAN
102.5138°
Arg perigee
272.1985°
Mean anomaly
87.8738°
Rev number
13,092

§ Raw data

STARLINK-319741 59885U 24100A   26263.97766131  .00000619  00000+0  32021-4 0  99982 59885  43.0026 102.5138 0001123 272.1985  87.8738 15.27579955130924

JSON: /api/v1/satellites/59885 · /tle

For live sub-satellite position, see the globe view (requires WebGL).

§ Visibility from observer

Set your observer location to see the next 7 days of passes ≥ 10°. The values pass through the URL so the page stays shareable.

No JS? Fill the form by hand. The geolocation button needs JavaScript.